Location: Unspecified
(0.0000°N, 0.0000°E)
Time: 18:16:28
(UTC+00:00)

Tiros 1 - Visible Passes

Search period start: 25 July 2014 00:00
Search period end: 04 August 2014 00:00
Orbit: 634 x 667 km, 48.4° (Epoch: 24 July)

Date Brightness Start Highest point End Pass type
(mag) Time Alt. Az. Time Alt. Az. Time Alt. Az.
25 Jul 8.6 05:07:42 10° SSW 05:11:52 33° SE 05:16:00 10° ENE visible
25 Jul 10.0 19:06:24 10° WSW 19:07:31 11° SW 19:08:38 10° SW visible
26 Jul 7.2 05:34:21 10° SW 05:38:58 69° NW 05:43:33 10° NNE visible
27 Jul 8.6 04:22:33 25° SSE 04:24:00 30° SE 04:28:04 10° ENE visible
28 Jul 7.0 04:49:14 35° SW 04:51:07 75° NW 04:55:43 10° NE visible
29 Jul 9.4 03:38:07 21° E 03:38:07 21° E 03:40:07 10° ENE visible
29 Jul 8.6 05:15:53 15° W 05:18:14 21° NW 05:21:44 10° N visible
30 Jul 8.1 04:04:44 43° NNE 04:04:44 43° NNE 04:07:52 10° NE visible
31 Jul 8.7 04:31:17 22° NNW 04:31:17 22° NNW 04:34:00 10° N visible
01 Aug 10.2 03:19:59 10° NE 03:19:59 10° NE 03:20:02 10° NE visible
